Wind_Speed
22 22 22 22 24 28 25 23 16 5 5 6 10 6 10 11 9 6 6 10 12 15 18 21 24 26 28 27 23 22 24 24 25 25 27 29 27 31
19 21 23 23 23 26 25 23 22 12 3 6 3 5 3 2 4 5 9 13 16 16 17 18 19 20 21 22 23 24 25 26 25 26 26 28 29 36
19 20 19 19 18 12 10 12 8 5 2 1 3 2 4 9 12 13 14 16 17 17 18 19 20 21 22 22 22 22 22 22 24 27 29 30 31 35
1 5 8 8 7 12 9 8 8 5 3 1 3 5 10 11 13 15 15 16 16 16 18 21 24 25 23 22 22 22 22 24 24 25 28 32 34 37
9 10 9 5 10 7 8 5 6 5 4 3 5 5 7 13 17 15 18 17 19 22 22 23 24 21 22 25 24 25 29 29 26 26 27 30 34 35
11 15 10 8 11 10 8 9 8 6 5 4 4 8 10 14 12 17 22 23 25 25 21 20 21 26 29 26 28 26 27 24 24 25 27 28 28 28
14 19 12 11 12 10 9 10 9 8 6 5 6 6 8 13 14 14 14 19 21 19 18 29 29 31 33 32 28 29 27 27 25 27 27 26 26 31
14 13 9 7 7 10 10 9 8 8 8 6 5 7 9 15 17 18 16 17 6 13 25 26 30 32 34 33 28 26 27 27 25 26 26 25 23 27
9 7 7 8 9 10 10 10 9 8 6 7 8 11 15 17 18 19 18 17 17 25 27 20 27 30 30 29 28 29 24 22 23 24 24 24 25 24
7 6 6 6 9 12 12 12 12 11 9 9 11 13 13 17 17 17 19 20 21 24 23 13 21 26 25 32 20 17 19 22 26 26 28 28 25 23
7 6 5 6 7 10 13 14 14 13 13 11 12 14 13 14 14 18 14 14 13 18 23 16 14 23 24 21 14 13 20 25 25 29 25 23 18 19
5 5 3 5 9 11 14 15 16 16 16 18 19 16 13 13 13 15 19 15 15 10 9 13 18 12 7 10 14 20 27 25 27 23 16 4 13 15
3 4 4 6 9 9 9 10 10 13 16 18 18 15 13 14 15 17 16 17 17 16 20 16 12 16 7 12 13 24 19 30 26 14 5 5 7 8
3 4 5 6 9 7 7 8 9 10 14 16 16 16 17 19 23 21 19 18 19 21 24 20 11 14 14 15 11 16 24 20 19 14 12 12 10 10
4 5 8 9 8 9 7 6 8 11 13 14 15 17 19 22 22 22 20 20 19 19 18 14 15 18 17 14 14 18 17 14 12 11 10 9 10 12
9 8 8 8 9 7 7 8 8 10 11 13 15 20 22 21 22 23 22 22 20 19 18 17 16 16 17 15 15 18 14 8 14 10 8 10 10 9
8 9 10 10 11 7 7 8 6 10 10 13 17 18 20 21 20 23 21 20 17 16 18 21 17 16 15 14 10 13 15 9 10 9 9 10 9 9
10 11 10 10 12 7 7 7 8 8 11 16 17 17 19 18 20 21 23 16 17 17 18 23 19 16 9 8 8 10 8 8 8 5 4 8 10 10
10 11 11 11 9 7 7 7 9 10 13 14 16 18 17 18 19 20 16 16 18 18 20 21 16 9 1 2 6 6 9 9 6 3 4 6 8 13
10 11 12 13 11 9 9 9 11 12 14 14 16 19 19 19 18 18 17 17 18 20 18 16 16 14 6 4 3 7 8 6 4 3 3 4 7 8
12 11 10 11 10 10 11 12 12 14 13 16 20 19 19 18 18 19 18 18 19 17 16 16 19 13 11 7 3 2 6 3 2 4 1 4 6 9
12 12 12 13 13 13 13 13 14 15 18 17 18 17 18 18 18 19 18 18 18 18 19 23 16 8 6 4 2 1 3 3 3 4 2 2 4 3
12 13 14 14 15 15 15 16 17 19 18 17 17 17 18 20 18 19 19 20 19 19 19 19 13 7 6 4 3 3 6 5 7 6 4 3 1 8
Wind_Direction
260 260 259 261 261 262 255 248 246 251 237 236 227 260 239 238 233 227 249 266 281 294 303 305 302 300 298 296 297 300 295 294 279 274 275 274 274 243
266 268 269 263 266 266 254 248 232 234 213 225 144 164 130 79 325 308 304 303 305 309 312 309 310 314 315 315 314 311 303 292 282 279 277 273 268 242
271 259 253 255 240 244 221 208 194 216 198 120 147 326 300 326 314 313 311 306 307 311 313 310 311 309 307 308 303 301 307 308 297 282 278 275 270 257
188 204 196 188 142 158 146 116 80 65 53 281 305 310 320 326 323 322 324 321 321 321 317 313 313 308 307 307 302 300 301 306 305 298 283 274 271 265
115 80 56 96 114 44 66 67 62 39 19 353 310 317 319 340 338 338 334 331 322 318 314 318 320 315 315 311 310 308 307 305 306 304 300 280 270 265
90 92 58 59 73 85 75 66 57 52 31 354 324 330 331 339 345 342 335 333 329 325 322 330 326 314 313 316 313 310 314 307 304 306 305 298 273 267
104 88 98 86 74 68 54 45 41 36 22 1 344 328 335 348 348 334 326 326 331 332 329 324 325 320 320 321 318 322 318 313 305 306 302 300 277 263
95 103 102 87 73 61 54 47 40 26 16 5 4 336 327 338 338 337 331 331 335 321 315 309 319 312 313 315 320 317 315 309 305 304 299 294 284 274
108 101 91 67 42 33 29 26 26 23 18 353 345 345 331 337 328 319 313 305 299 304 307 301 312 303 315 319 316 318 316 323 324 311 299 296 286 280
81 71 74 57 35 16 8 9 12 18 20 359 345 332 322 317 315 310 307 307 306 310 314 291 303 302 315 312 321 324 333 333 331 321 311 297 282 272
69 63 64 43 16 3 355 359 2 12 3 354 336 322 319 317 320 324 317 319 309 313 314 297 312 315 309 308 318 324 334 336 329 326 324 297 276 260
95 101 90 12 0 3 354 353 352 352 345 333 334 338 340 328 321 322 323 313 308 307 312 329 306 327 309 298 319 322 333 333 329 331 339 4 182 185
60 29 2 355 356 348 346 340 338 329 323 329 331 335 337 330 321 318 313 307 294 284 294 308 294 309 271 303 314 316 320 328 335 339 39 300 268 256
336 331 341 342 338 335 329 337 334 322 324 332 334 332 329 327 328 325 320 313 304 302 310 310 277 293 296 302 298 310 317 328 339 334 312 304 293 288
321 320 309 318 324 319 320 329 321 330 333 333 328 324 325 323 324 329 324 322 316 317 319 318 301 297 296 279 288 304 320 321 346 344 324 308 307 300
307 313 319 317 320 308 306 321 323 333 331 326 324 323 323 326 326 330 321 319 315 315 318 329 316 302 298 291 293 298 302 304 320 323 303 307 314 312
313 306 311 313 321 306 307 320 314 331 335 325 326 323 323 326 324 331 327 318 311 313 315 326 317 306 294 285 305 307 315 309 319 307 302 312 313 317
293 291 293 296 296 288 294 308 314 322 320 326 325 323 320 319 317 324 325 319 310 311 308 320 317 311 314 295 267 305 314 328 332 327 318 317 319 340
261 278 282 291 288 278 301 314 312 319 320 320 319 321 316 314 316 318 318 318 315 312 301 318 304 290 304 262 286 318 328 333 329 332 322 318 319 339
258 272 277 285 282 283 290 293 304 307 309 309 311 317 319 316 310 313 312 309 309 312 310 317 303 295 243 242 295 327 340 321 291 300 349 343 329 335
258 261 274 281 281 279 283 288 292 299 301 302 305 313 319 316 306 305 304 310 313 311 304 305 317 310 286 279 287 345 7 4 300 260 140 12 340 352
267 261 270 276 273 275 278 279 282 285 299 306 307 312 316 315 299 299 301 300 304 302 299 305 315 298 249 260 253 153 101 60 62 143 162 355 330 359
254 268 270 270 270 270 273 273 277 287 296 304 307 311 313 309 306 302 298 300 299 299 301 302 298 269 248 280 209 140 130 117 100 92 46 3 52 110
Height
751 752 753 754 755 755 755 755 756 753 752 748 753 750 749 751 752 754 753 754 755 754 753 753 751 749 746 745 743 739 736 735 734 732 732 731 731 732
747 747 748 748 749 749 748 748 748 749 747 747 746 749 748 749 749 750 751 751 750 748 747 746 745 742 741 739 736 733 730 728 727 726 724 724 724 723
744 743 743 743 743 745 743 743 745 744 742 746 746 746 748 746 748 748 747 747 746 744 743 741 739 737 735 732 730 728 726 722 719 717 716 716 715 714
740 741 739 740 742 740 741 741 742 744 744 746 745 744 745 746 744 744 744 744 741 740 738 736 733 732 730 728 725 722 719 716 713 710 708 707 706 705
739 740 743 744 740 743 742 744 743 744 745 746 747 746 745 744 742 742 741 740 739 737 734 731 728 726 725 722 718 715 712 709 706 703 700 698 697 696
742 736 745 749 744 745 748 746 747 747 748 749 747 746 746 744 743 743 739 738 735 732 730 727 724 721 718 716 713 709 705 701 698 696 693 690 688 689
744 736 748 749 749 751 750 749 749 749 749 749 749 748 747 745 744 743 741 738 733 730 726 724 720 716 713 709 706 703 700 696 692 689 686 684 681 682
742 745 748 751 753 752 751 751 751 749 748 747 746 746 745 744 742 741 739 736 732 729 726 722 719 713 708 704 701 698 695 691 686 683 680 677 675 674
746 748 749 751 752 752 752 750 750 748 748 748 747 746 744 743 742 739 737 735 733 728 725 719 715 710 705 701 697 693 689 685 680 676 673 671 670 669
749 749 750 752 753 752 751 750 749 748 747 746 745 745 744 743 741 738 736 732 729 727 724 715 711 706 701 697 691 689 686 681 676 671 667 664 663 664
750 751 752 753 753 753 750 748 747 746 746 745 744 743 742 740 738 736 733 730 725 723 719 714 708 703 697 691 689 687 683 678 673 668 662 657 657 658
751 752 753 753 751 750 748 746 745 745 744 742 741 739 739 738 737 736 733 729 726 719 716 714 708 703 696 688 685 683 680 675 671 666 662 656 655 656
750 750 750 750 750 749 748 747 746 745 742 741 739 737 736 735 734 732 730 727 724 720 714 713 706 703 699 690 683 680 678 672 668 664 662 660 660 660
748 748 748 748 748 747 747 746 745 743 742 740 737 736 734 732 729 727 724 722 719 715 711 708 704 702 698 691 685 679 677 671 667 664 663 662 662 661
747 747 747 747 746 745 745 745 744 742 741 739 737 734 732 730 726 722 720 717 714 710 707 704 700 698 696 691 685 680 677 670 667 664 663 664 662 661
746 746 746 745 745 744 743 743 742 741 739 738 735 733 730 727 724 721 717 713 709 704 703 700 698 694 691 687 683 679 677 673 668 665 665 664 661 659
745 745 744 743 742 741 741 741 740 739 738 737 734 731 728 725 721 718 715 711 707 702 699 696 694 691 687 685 681 679 674 671 668 666 665 663 660 659
742 742 742 741 740 739 739 738 738 737 736 734 732 729 726 723 719 716 713 710 706 701 697 693 690 688 684 680 680 677 673 670 668 667 666 663 661 658
737 738 738 738 737 737 736 735 734 733 732 731 730 727 724 721 718 714 711 708 703 699 695 691 689 687 686 685 679 676 673 670 668 668 667 666 663 659
734 734 734 734 734 733 733 732 731 730 729 728 726 724 721 718 714 711 709 705 701 697 692 689 687 685 683 682 679 675 672 670 670 670 669 667 665 663
730 731 731 731 731 731 730 729 729 727 726 724 723 720 717 715 712 709 706 703 700 696 691 687 684 682 679 678 677 675 673 672 671 672 671 669 668 665
726 727 728 728 727 727 727 726 725 723 722 720 718 716 714 712 709 706 703 701 697 694 690 686 682 680 679 678 676 676 675 674 673 673 673 673 673 671
722 723 723 723 723 723 723 721 720 718 716 715 713 711 709 707 705 703 700 697 694 691 687 683 681 679 678 677 677 677 677 676 675 675 675 674 674 675